[[{"header":{"parameterUnit":"m.s-1","parameterCategory":2,"la1":30.2991,"la2":30.254,"lo1":-89.0895,"lo2":-89.0444,"dy":0.0017,"dx":0.0017,"nx":28,"ny":28,"refTime":"2023-03-29T21:00:00:Z","depth":"0","parameterNumber":2,"parameterNumberName":"U-component_of_CURRENTS"},"data":[0,0,0,0,0,0,0,0,0,0,0,0,0,0,0,0,0,0,0,0,0,0,0,0,0,0,0,0,0,0,0,0,0,0,0,0,0,0,0,0,0,0,0,0,0,0,0,0,0,0,0,0,0,0,0,0,0,0,-0.2747,-0.2748,0,-0.2892,-0.2893,-0.2894,-0.2913,-0.2912,-0.2911,-0.291,-0.2894,-0.2894,-0.2895,0,0,0,0,0,0,0,0,0,0,0,0,0,-0.2557,-0.256,-0.2746,-0.2749,-0.2751,-0.2891,-0.2893,-0.2894,-0.2913,-0.2912,-0.2911,-0.291,-0.2893,-0.2894,-0.2895,0,0,0,0,0,0,0,0,0,0,0,0,0,-0.266,-0.2561,-0.2746,-0.278,-0.2785,-0.2891,-0.2893,-0.2895,-0.2913,-0.2912,-0.2911,-0.2909,-0.2893,-0.2894,-0.2895,-0.2928,0,0,-0.2897,-0.2897,0,0,0,0,0,0,0,0,-0.2654,-0.2666,-0.2773,-0.2778,-0.2784,-0.2887,-0.2821,-0.29,-0.2914,-0.286,-0.291,-0.2908,-0.288,-0.2882,-0.2908,-0.2927,-0.2927,-0.2897,-0.2897,-0.2898,-0.2898,0,0,0,0,0,0,0,-0.2647,-0.2661,-0.2799,-0.2776,-0.2782,-0.2814,-0.2825,-0.2836,-0.287,-0.2865,-0.2867,-0.2891,-0.2881,-0.2908,-0.2908,-0.2926,-0.2897,-0.2897,-0.2898,-0.2898,-0.2952,-0.2953,0,0,0,0,0,0,-0.2637,-0.2654,-0.2795,-0.2804,-0.2719,-0.2818,-0.2831,-0.2851,-0.2874,-0.2878,-0.2892,-0.2892,-0.2907,-0.2907,-0.2907,-0.2937,-0.2898,-0.2898,-0.2899,-0.2951,-0.2952,-0.2953,0,0,0,0,0,0,-0.2632,-0.2648,-0.2789,-0.2736,-0.2756,-0.2823,-0.2846,-0.2855,-0.2885,-0.2897,-0.2897,-0.2912,-0.2906,-0.2906,-0.2914,-0.2936,-0.2898,-0.2899,-0.295,-0.2951,-0.2953,-0.3003,0,0,0,0,0,0,-0.2626,-0.2645,-0.2653,-0.2735,-0.2759,-0.2863,-0.2848,-0.2859,-0.2904,-0.2904,-0.2914,-0.2912,-0.2905,-0.2913,-0.2915,-0.2937,-0.29,-0.2948,-0.295,-0.2952,-0.3,-0.3006,-0.3011,0,0,0,0,0,-0.2618,-0.2644,-0.2652,-0.267,-0.2769,-0.2866,-0.2881,-0.292,-0.2906,-0.2936,-0.2926,-0.2911,-0.2926,-0.2915,-0.2917,-0.2939,-0.2947,-0.295,-0.2952,-0.2998,-0.3005,-0.3011,0,0,0,0,0,0,-0.257,-0.2651,-0.2661,-0.271,-0.2785,-0.287,-0.2898,-0.2926,-0.2948,-0.2932,-0.2926,-0.2925,-0.2947,-0.2934,-0.2921,-0.296,-0.2934,-0.2937,-0.2969,-0.2976,-0.2981,-0.2977,-0.29,0,0,0,0,0,-0.2563,-0.2596,-0.2686,-0.2724,-0.2756,-0.2825,-0.2865,-0.29,-0.2937,-0.2947,-0.2953,-0.295,-0.2962,-0.2958,-0.2973,-0.2988,-0.2944,-0.3003,-0.3008,-0.3013,-0.3011,-0.2939,-0.2937,-0.2961,-0.2961,-0.2961,0,0,-0.2552,-0.2603,-0.262,-0.2715,-0.2763,-0.2837,-0.2844,-0.2913,-0.2967,-0.2938,-0.2982,-0.2979,-0.2974,-0.2999,-0.3006,-0.2985,-0.299,-0.3016,-0.302,-0.3015,-0.2941,-0.2938,-0.2936,-0.2962,-0.2962,-0.2962,0,0,-0.256,-0.2594,-0.2625,-0.2694,-0.2784,-0.2842,-0.2864,-0.2952,-0.2976,-0.3029,-0.3016,-0.3016,-0.3045,-0.3041,-0.3041,-0.3083,-0.3032,-0.3093,-0.3106,-0.3036,-0.3033,-0.3029,-0.2994,-0.2986,-0.3082,-0.3082,-0.3082,0,-0.2537,-0.2591,-0.2653,-0.2716,-0.2762,-0.2845,-0.2897,-0.2964,-0.3043,-0.3041,-0.3045,-0.3057,-0.3065,-0.3067,-0.3095,-0.3095,-0.3052,-0.3081,-0.3041,-0.3036,-0.3032,-0.2995,-0.2987,-0.3085,-0.3085,-0.3084,-0.3084,0,-0.2585,-0.2625,-0.2653,-0.275,-0.2819,-0.2879,-0.298,-0.3032,-0.3061,-0.3101,-0.3111,-0.3117,-0.3105,-0.3126,-0.3132,-0.3113,-0.3094,-0.3064,-0.3019,-0.3032,-0.2994,-0.2984,-0.3089,-0.3088,-0.3087,-0.3086,0,0,-0.2522,-0.2651,-0.2656,-0.268,-0.283,-0.2879,-0.2978,-0.3055,-0.3068,-0.3135,-0.3119,-0.3173,-0.3148,-0.3148,-0.3142,-0.3104,-0.3065,-0.3079,-0.3074,-0.3036,-0.2925,-0.2914,-0.2902,-0.3014,-0.3012,-0.3011,-0.2919,0,-0.2522,-0.2598,-0.2683,-0.2753,-0.2792,-0.2896,-0.2967,-0.3049,-0.3101,-0.3117,-0.3124,-0.3114,-0.3167,-0.313,-0.3118,-0.3076,-0.3037,-0.3094,-0.2925,-0.2921,-0.2901,-0.2889,-0.2797,-0.2707,-0.2909,-0.2907,-0.2906,0,-0.2533,-0.2572,-0.2628,-0.2702,-0.2725,-0.2788,-0.2859,-0.2932,-0.3006,-0.3025,-0.3039,-0.3054,-0.3052,-0.3059,-0.3008,-0.3036,-0.2992,-0.2959,-0.2952,-0.2913,-0.289,-0.2722,-0.268,-0.2666,-0.289,-0.2891,-0.2892,0,-0.2427,-0.2524,-0.2543,-0.2584,-0.2706,-0.272,-0.2774,-0.2873,-0.2913,-0.2937,-0.2947,-0.2956,-0.2936,-0.2897,-0.2921,-0.2929,-0.2843,-0.2824,-0.2773,-0.2772,-0.2647,-0.2639,-0.256,-0.2744,-0.2744,-0.2745,-0.2745,0,-0.239,-0.2398,-0.2479,-0.2493,-0.2503,-0.2602,-0.2623,-0.2686,-0.2753,-0.2781,-0.286,-0.2872,-0.2889,-0.2887,-0.2877,-0.2823,-0.2803,-0.2772,-0.2737,-0.2668,-0.2663,-0.2608,-0.2642,-0.2741,-0.2742,-0.2743,-0.2743,0,-0.229,-0.2351,-0.2374,-0.2446,-0.2463,-0.246,-0.2554,-0.2565,-0.2638,-0.2673,-0.2672,-0.2782,-0.2779,-0.2819,-0.2753,-0.2754,-0.2647,-0.2668,-0.2621,-0.2583,-0.2513,-0.2555,-0.2423,-0.2347,-0.2564,-0.2563,-0.2563,0,-0.225,-0.2249,-0.2316,-0.2319,-0.2347,-0.2367,-0.239,-0.2488,-0.252,-0.2627,-0.2625,-0.2665,-0.2713,-0.2673,-0.2642,-0.2594,-0.2591,-0.2475,-0.2472,-0.2494,-0.2513,-0.252,-0.2465,-0.2332,-0.233,-0.2328,-0.2326,0,-0.2155,-0.2181,-0.2192,-0.2207,-0.2219,-0.2253,-0.2284,-0.2313,-0.2422,-0.2471,-0.2533,-0.257,-0.2586,-0.2535,-0.2506,-0.2458,-0.242,-0.2429,-0.2426,-0.2312,-0.2332,-0.2246,-0.2449,-0.2306,-0.2308,-0.231,-0.2311,-0.2312,-0.2066,-0.2057,-0.2071,-0.2078,-0.2095,-0.2108,-0.2094,-0.2165,-0.2211,-0.2279,-0.239,-0.2443,-0.2444,-0.24,-0.2355,-0.225,-0.2275,-0.2177,-0.2221,-0.2224,-0.2158,-0.2356,-0.2198,-0.2199,-0.2201,-0.2201,-0.2202,0,-0.1954,-0.1947,-0.194,-0.1942,-0.1909,-0.1968,-0.1999,-0.1977,-0.1994,-0.2129,-0.2189,-0.2296,-0.224,-0.2251,-0.2175,-0.2078,-0.1993,-0.2022,-0.1991,-0.1938,-0.2066,-0.2066,-0.1901,-0.1901,-0.1901,-0.1901,-0.1901,-0.1901,-0.1887,-0.1839,-0.1843,-0.175,-0.1744,-0.167,-0.1664,-0.1671,-0.1737,-0.184,-0.1979,-0.2138,-0.2176,-0.2284,-0.2153,-0.203,-0.1951,-0.1884,-0.1894,-0.2002,-0.2019,-0.2036,-0.204,-0.1873,-0.1873,-0.1664,-0.1663,-0.1663]},{"header":{"parameterUnit":"m.s-1","parameterCategory":2,"la1":30.2991,"la2":30.254,"lo1":-89.0895,"lo2":-89.0444,"dy":0.0017,"dx":0.0017,"nx":28,"ny":28,"refTime":"2023-03-29T21:00:00:Z","depth":"0","parameterNumber":3,"parameterNumberName":"V-component_of_CURRENTS"},"data":[0,0,0,0,0,0,0,0,0,0,0,0,0,0,0,0,0,0,0,0,0,0,0,0,0,0,0,0,0,0,0,0,0,0,0,0,0,0,0,0,0,0,0,0,0,0,0,0,0,0,0,0,0,0,0,0,0,0,-0.0312,-0.0312,0,-0.0248,-0.0248,-0.0247,-0.0208,-0.0208,-0.0208,-0.0208,-0.003,-0.0025,-0.002,0,0,0,0,0,0,0,0,0,0,0,0,0,-0.0346,-0.0346,-0.0312,-0.0312,-0.0311,-0.0248,-0.0248,-0.0247,-0.0208,-0.0208,-0.0208,-0.0208,-0.0031,-0.0026,-0.002,0,0,0,0,0,0,0,0,0,0,0,0,0,-0.0311,-0.0346,-0.0313,-0.0285,-0.0282,-0.0249,-0.0247,-0.0246,-0.0208,-0.0208,-0.0208,-0.0208,-0.0033,-0.0026,-0.0019,0.002,0,0,0.0002,0.0005,0,0,0,0,0,0,0,0,-0.0313,-0.031,-0.029,-0.0287,-0.0283,-0.0237,-0.0194,-0.0152,-0.0208,-0.0236,-0.0208,-0.0208,-0.0089,-0.0077,-0.0066,0.0028,0.0036,0.0003,0.0007,0.001,0.0012,0,0,0,0,0,0,0,-0.0316,-0.0312,-0.0286,-0.0289,-0.0285,-0.0257,-0.0252,-0.0186,-0.0161,-0.0233,-0.023,-0.0224,-0.0086,-0.0073,-0.0061,0.0039,0.0002,0.0009,0.0013,0.0016,0.0173,0.0173,0,0,0,0,0,0,-0.0328,-0.0315,-0.0288,-0.0285,-0.0299,-0.0256,-0.0251,-0.0251,-0.0164,-0.0152,-0.0225,-0.0223,-0.0085,-0.007,-0.0055,-0.0012,0.001,0.0016,0.002,0.0173,0.0173,0.0173,0,0,0,0,0,0,-0.0329,-0.0327,-0.0291,-0.0298,-0.0292,-0.0257,-0.0257,-0.025,-0.0242,-0.0159,-0.0145,-0.0224,-0.0084,-0.0065,-0.0004,-0.0004,0.0019,0.0026,0.0173,0.0173,0.0173,0.008,0,0,0,0,0,0,-0.0331,-0.0328,-0.0334,-0.0299,-0.0292,-0.0281,-0.0257,-0.0249,-0.0238,-0.0236,-0.0153,-0.0137,-0.0083,-0.0015,0.0003,0.0006,0.0031,0.0173,0.0173,0.0173,0.0083,0.0077,0.0071,0,0,0,0,0,-0.0332,-0.0356,-0.0335,-0.0331,-0.0301,-0.0281,-0.0275,-0.0248,-0.0239,-0.0239,-0.0184,-0.0139,-0.0002,-0.0009,0.0012,0.0016,0.0173,0.0173,0.0173,0.0086,0.0078,0.0072,0,0,0,0,0,0,-0.038,-0.0352,-0.0329,-0.0343,-0.0313,-0.0275,-0.0279,-0.0256,-0.0215,-0.0214,-0.0134,-0.0114,-0.0063,-0.0009,-0.0019,0.0062,0.0092,0.0096,0.0018,0.0012,0.0006,-0.0008,0.0037,0,0,0,0,0,-0.039,-0.0394,-0.0357,-0.0365,-0.0356,-0.0315,-0.0305,-0.0287,-0.0247,-0.0231,-0.0167,-0.0102,-0.0045,-0.0008,0.0051,0.0101,0.0145,0.0117,0.0111,0.0106,0.0108,0.017,0.017,0.0174,0.0174,0.0174,0,0,-0.041,-0.0395,-0.0396,-0.0373,-0.035,-0.0348,-0.031,-0.0306,-0.0296,-0.0214,-0.0179,-0.0119,-0.0038,0.001,0.0039,0.0056,0.0124,0.0106,0.01,0.0107,0.017,0.017,0.0169,0.0174,0.0174,0.0174,0,0,-0.0463,-0.0438,-0.0463,-0.0441,-0.0415,-0.0383,-0.0385,-0.0345,-0.0321,-0.0279,-0.0222,-0.0163,-0.0072,-0.0015,0.0025,0.0027,0.0087,0.0044,0.0011,0.007,0.007,0.007,0.0103,0.0107,0.0045,0.0045,0.0045,0,-0.0488,-0.051,-0.0466,-0.0481,-0.0469,-0.0404,-0.0422,-0.0386,-0.0328,-0.03,-0.0281,-0.0148,-0.0083,-0.0016,-0.0021,0.0015,0.0047,0.0026,0.006,0.0062,0.0065,0.0099,0.0104,0.004,0.0041,0.0041,0.0042,0,-0.0557,-0.0568,-0.0581,-0.0568,-0.0547,-0.0553,-0.0494,-0.0464,-0.042,-0.0371,-0.0299,-0.0209,-0.0128,-0.0102,-0.0059,-0.001,0.0006,0.0039,0.0072,0.0058,0.0095,0.0103,0.0034,0.0035,0.0037,0.0038,0,0,-0.0624,-0.0632,-0.0633,-0.0639,-0.0595,-0.0585,-0.0559,-0.051,-0.0487,-0.041,-0.0369,-0.0269,-0.0211,-0.0162,-0.0095,-0.0042,-0.0008,-0.0004,0.0002,0.0017,0.0101,0.0141,0.0153,0.0028,0.0029,0.003,0.0111,0,-0.0689,-0.0746,-0.072,-0.0744,-0.0761,-0.0686,-0.0663,-0.0602,-0.0531,-0.0468,-0.0361,-0.0294,-0.0236,-0.0199,-0.0137,-0.0032,0.0013,-0.0034,0.0124,0.0128,0.0156,0.0165,0.0203,0.0282,0.0119,0.0121,0.0122,0,-0.0759,-0.0785,-0.084,-0.0828,-0.0827,-0.0823,-0.0758,-0.0729,-0.0616,-0.0562,-0.0466,-0.0372,-0.0268,-0.0224,-0.0059,-0.0093,-0.001,0.0066,0.0072,0.0152,0.0184,0.0277,0.0303,0.0478,0.0135,0.0134,0.0133,0,-0.0822,-0.0857,-0.0904,-0.0901,-0.0881,-0.0881,-0.0854,-0.0761,-0.0727,-0.0613,-0.0569,-0.0428,-0.0352,-0.0222,-0.0053,-0.0059,0.0123,0.014,0.0251,0.0253,0.0341,0.035,0.0552,0.0244,0.0243,0.0243,0.0243,0,-0.0893,-0.0924,-0.0943,-0.0964,-0.1001,-0.0952,-0.095,-0.0898,-0.0813,-0.0768,-0.0624,-0.0557,-0.0347,-0.0205,-0.007,0.0122,0.0115,0.025,0.0286,0.0307,0.0312,0.0514,0.0594,0.0246,0.0245,0.0245,0.0244,0,-0.0952,-0.0968,-0.1021,-0.1033,-0.1038,-0.1059,-0.1029,-0.1015,-0.0928,-0.0864,-0.083,-0.0645,-0.0457,-0.0246,-0.0022,0.0103,0.0394,0.0341,0.0341,0.0376,0.0634,0.0706,0.094,0.1044,0.0472,0.0473,0.0475,0,-0.0988,-0.1028,-0.1079,-0.1115,-0.1129,-0.1148,-0.1155,-0.1086,-0.106,-0.0916,-0.0892,-0.0691,-0.0536,-0.019,0.0076,0.0334,0.0473,0.0507,0.0514,0.0666,0.0774,0.0815,0.0888,0.0582,0.0584,0.0586,0.0587,0,-0.1048,-0.1071,-0.1116,-0.1199,-0.1235,-0.1265,-0.1266,-0.1265,-0.1165,-0.1098,-0.0976,-0.0839,-0.0471,-0.0133,0.0224,0.0374,0.0655,0.055,0.0728,0.0899,0.0941,0.1051,0.0489,0.0603,0.0601,0.06,0.0599,0.0599,-0.1082,-0.1139,-0.1203,-0.1276,-0.1325,-0.1367,-0.139,-0.1366,-0.1331,-0.1211,-0.1062,-0.083,-0.0301,0.0217,0.0415,0.0842,0.0796,0.0954,0.103,0.1059,0.1168,0.0625,0.0769,0.0769,0.0768,0.0768,0.0768,0,-0.1121,-0.1186,-0.1267,-0.1357,-0.1423,-0.1424,-0.1449,-0.1452,-0.1423,-0.1267,-0.1118,-0.0544,-0.0017,0.0476,0.1095,0.1318,0.1369,0.1421,0.1505,0.1559,0.1104,0.1119,0.1323,0.1323,0.1322,0.1322,0.1322,0.1322,-0.1144,-0.1239,-0.1291,-0.1418,-0.1474,-0.1542,-0.1559,-0.1544,-0.1452,-0.1204,-0.0892,-0.0637,0.0142,0.12,0.178,0.1809,0.2008,0.197,0.2083,0.1785,0.1747,0.1711,0.1746,0.2078,0.2079,0.2514,0.2519,0.2522]}],[{"header":{"parameterUnit":"m.s-1","parameterCategory":2,"la1":30.2991,"la2":30.254,"lo1":-89.0895,"lo2":-89.0444,"dy":0.0017,"dx":0.0017,"nx":28,"ny":28,"refTime":"2023-03-29T21:00:00:Z","depth":"2","parameterNumber":2,"parameterNumberName":"U-component_of_CURRENTS"},"data":[0,0,0,0,0,0,0,0,0,0,0,0,0,0,0,0,0,0,0,0,0,0,0,0,0,0,0,0,0,0,0,0,0,0,0,0,0,0,0,0,0,0,0,0,0,0,0,0,0,0,0,0,0,0,0,0,0,0,-0.2606,-0.2607,0,-0.2746,-0.2747,-0.2749,-0.2786,-0.2785,-0.2785,-0.2784,-0.2804,-0.2805,-0.2806,0,0,0,0,0,0,0,0,0,0,0,0,0,-0.244,-0.2443,-0.2605,-0.2607,-0.2609,-0.2745,-0.2747,-0.2749,-0.2786,-0.2785,-0.2785,-0.2784,-0.2803,-0.2805,-0.2806,0,0,0,0,0,0,0,0,0,0,0,0,0,-0.2538,-0.2443,-0.2605,-0.2645,-0.265,-0.2745,-0.2747,-0.2749,-0.2787,-0.2785,-0.2784,-0.2783,-0.2803,-0.2804,-0.2806,-0.284,0,0,-0.2812,-0.2813,0,0,0,0,0,0,0,0,-0.2533,-0.2544,-0.2637,-0.2642,-0.2648,-0.2748,-0.2696,-0.2774,-0.2787,-0.2734,-0.2784,-0.2783,-0.2775,-0.2779,-0.2809,-0.2841,-0.2842,-0.2812,-0.2813,-0.2814,-0.2814,0,0,0,0,0,0,0,-0.2526,-0.2539,-0.266,-0.2639,-0.2646,-0.268,-0.2692,-0.2712,-0.2756,-0.2738,-0.2742,-0.2759,-0.2777,-0.2807,-0.2809,-0.2842,-0.2812,-0.2814,-0.2815,-0.2815,-0.2897,-0.2898,0,0,0,0,0,0,-0.2508,-0.2532,-0.2656,-0.2664,-0.2588,-0.2683,-0.2697,-0.2716,-0.2759,-0.2765,-0.276,-0.276,-0.2804,-0.2807,-0.2809,-0.2853,-0.2814,-0.2816,-0.2817,-0.2896,-0.2897,-0.2898,0,0,0,0,0,0,-0.2504,-0.2518,-0.265,-0.2602,-0.2621,-0.2687,-0.2709,-0.272,-0.2755,-0.2777,-0.278,-0.2785,-0.2803,-0.2807,-0.2831,-0.2853,-0.2816,-0.2818,-0.2895,-0.2896,-0.2898,-0.2938,0,0,0,0,0,0,-0.2499,-0.2516,-0.2525,-0.2601,-0.2623,-0.272,-0.2711,-0.2723,-0.2768,-0.277,-0.2799,-0.28,-0.2803,-0.2829,-0.2833,-0.2855,-0.2819,-0.2893,-0.2895,-0.2897,-0.2936,-0.2941,-0.2946,0,0,0,0,0,-0.2493,-0.2517,-0.2524,-0.254,-0.2633,-0.2722,-0.2738,-0.2779,-0.277,-0.2803,-0.2808,-0.2799,-0.2844,-0.2832,-0.2836,-0.2859,-0.2892,-0.2895,-0.2897,-0.2933,-0.294,-0.2946,0,0,0,0,0,0,-0.2454,-0.2526,-0.2535,-0.2579,-0.2648,-0.2729,-0.2756,-0.2786,-0.2821,-0.2809,-0.2817,-0.282,-0.2856,-0.285,-0.2835,-0.2888,-0.2866,-0.2869,-0.2892,-0.2898,-0.2903,-0.2897,-0.2821,0,0,0,0,0,-0.2448,-0.2479,-0.2559,-0.2593,-0.2622,-0.2687,-0.2725,-0.2761,-0.2803,-0.2819,-0.2842,-0.2852,-0.2873,-0.2876,-0.2903,-0.2926,-0.2884,-0.2943,-0.2948,-0.2952,-0.2951,-0.2878,-0.2875,-0.2906,-0.2906,-0.2906,0,0,-0.2439,-0.2484,-0.2499,-0.2586,-0.2631,-0.2698,-0.2708,-0.2772,-0.2827,-0.2812,-0.2874,-0.2881,-0.2888,-0.2924,-0.2937,-0.2916,-0.2928,-0.2955,-0.2959,-0.2956,-0.288,-0.2876,-0.2873,-0.2908,-0.2908,-0.2908,0,0,-0.2445,-0.2478,-0.2507,-0.2569,-0.2648,-0.2704,-0.2723,-0.2811,-0.2845,-0.2908,-0.2906,-0.2916,-0.2965,-0.2966,-0.2971,-0.3016,-0.2968,-0.3029,-0.3038,-0.2967,-0.2963,-0.2959,-0.2922,-0.2915,-0.3017,-0.3017,-0.3017,0,-0.2426,-0.2476,-0.2533,-0.2588,-0.2628,-0.2706,-0.2753,-0.2824,-0.2912,-0.2919,-0.293,-0.2966,-0.2984,-0.2991,-0.3021,-0.3027,-0.2984,-0.3014,-0.297,-0.2965,-0.296,-0.2924,-0.2914,-0.3019,-0.3019,-0.3019,-0.3019,0,-0.2467,-0.2505,-0.253,-0.2618,-0.268,-0.2734,-0.2833,-0.289,-0.293,-0.2977,-0.3004,-0.3022,-0.3024,-0.3046,-0.3058,-0.3039,-0.3021,-0.2993,-0.2948,-0.2959,-0.2921,-0.291,-0.3023,-0.3022,-0.3021,-0.302,0,0,-0.241,-0.2528,-0.2532,-0.2554,-0.2689,-0.2734,-0.2833,-0.2913,-0.2931,-0.3013,-0.3008,-0.3075,-0.3059,-0.3063,-0.3063,-0.3024,-0.2981,-0.3001,-0.2997,-0.2955,-0.2838,-0.2828,-0.2816,-0.2929,-0.2927,-0.2926,-0.2833,0,-0.2409,-0.2477,-0.2555,-0.2619,-0.2654,-0.275,-0.2823,-0.2906,-0.2966,-0.2994,-0.3012,-0.3016,-0.3074,-0.3043,-0.303,-0.2993,-0.2952,-0.3011,-0.2843,-0.2839,-0.2819,-0.2802,-0.2579,-0.2476,-0.2822,-0.282,-0.2819,0,-0.2416,-0.2453,-0.2503,-0.2574,-0.2594,-0.2653,-0.2723,-0.2798,-0.2877,-0.2905,-0.2926,-0.2951,-0.2954,-0.2964,-0.2917,-0.2946,-0.2903,-0.2871,-0.2865,-0.283,-0.2809,-0.2518,-0.2443,-0.2801,-0.2802,-0.2804,-0.2805,0,-0.2319,-0.2408,-0.2427,-0.2464,-0.2577,-0.2593,-0.2645,-0.2743,-0.2789,-0.2819,-0.2832,-0.2848,-0.2835,-0.2797,-0.2828,-0.2836,-0.275,-0.2732,-0.2682,-0.2682,-0.2447,-0.243,-0.2651,-0.2651,-0.2651,-0.2651,-0.2651,0,-0.2282,-0.2291,-0.237,-0.2382,-0.2395,-0.2485,-0.2509,-0.2571,-0.2638,-0.267,-0.2751,-0.2766,-0.2787,-0.2788,-0.278,-0.273,-0.2708,-0.268,-0.2646,-0.2462,-0.2448,-0.2693,-0.27,-0.2648,-0.2648,-0.2649,-0.265,0,-0.2187,-0.2246,-0.2269,-0.2339,-0.2357,-0.2357,-0.2448,-0.2461,-0.2533,-0.257,-0.2571,-0.268,-0.2679,-0.2721,-0.2656,-0.2658,-0.2598,-0.2574,-0.2396,-0.2344,-0.2585,-0.2595,-0.2473,-0.2472,-0.2471,-0.247,-0.2469,0,-0.2148,-0.2148,-0.2215,-0.2219,-0.2248,-0.2271,-0.2294,-0.239,-0.2422,-0.2527,-0.2526,-0.2568,-0.2612,-0.2573,-0.2518,-0.2464,-0.2555,-0.2244,-0.2224,-0.2583,-0.2561,-0.2573,-0.2584,-0.1928,-0.1923,-0.1918,-0.1915,0,-0.2057,-0.2083,-0.2095,-0.2112,-0.2126,-0.216,-0.2194,-0.2223,-0.2329,-0.2374,-0.2434,-0.2467,-0.246,-0.2329,-0.2291,-0.223,-0.2243,-0.2159,-0.2503,-0.2045,-0.207,-0.205,-0.2077,-0.1877,-0.1881,-0.1884,-0.1886,-0.1887,-0.1972,-0.1963,-0.1979,-0.1989,-0.2007,-0.202,-0.2007,-0.2068,-0.2109,-0.2141,-0.2262,-0.2236,-0.2215,-0.2055,-0.196,-0.1877,-0.203,-0.1928,-0.1938,-0.1954,-0.1944,-0.1969,-0.1757,-0.176,-0.1763,-0.1765,-0.1767,0,-0.186,-0.1859,-0.1854,-0.1857,-0.1822,-0.1886,-0.1915,-0.1873,-0.1873,-0.1933,-0.196,-0.1782,-0.1706,-0.1707,-0.1513,-0.1491,-0.1442,-0.1435,-0.1355,-0.1393,-0.1427,-0.139,-0.1055,-0.1054,-0.1052,-0.105,0,0,-0.1795,-0.1747,-0.1752,-0.1663,-0.1662,-0.1584,-0.1578,-0.1542,-0.1545,-0.1496,-0.1485,-0.1609,-0.1657,-0.1357,-0.1276,-0.1141,-0.1254,-0.108,-0.1644,-0.1586,-0.1618,-0.1699,-0.1684,0,0,0,0,0]},{"header":{"parameterUnit":"m.s-1","parameterCategory":2,"la1":30.2991,"la2":30.254,"lo1":-89.0895,"lo2":-89.0444,"dy":0.0017,"dx":0.0017,"nx":28,"ny":28,"refTime":"2023-03-29T21:00:00:Z","depth":"2","parameterNumber":3,"parameterNumberName":"V-component_of_CURRENTS"},"data":[0,0,0,0,0,0,0,0,0,0,0,0,0,0,0,0,0,0,0,0,0,0,0,0,0,0,0,0,0,0,0,0,0,0,0,0,0,0,0,0,0,0,0,0,0,0,0,0,0,0,0,0,0,0,0,0,0,0,-0.0263,-0.0263,0,-0.0203,-0.0202,-0.0202,-0.0164,-0.0164,-0.0164,-0.0163,0.0017,0.0021,0.0026,0,0,0,0,0,0,0,0,0,0,0,0,0,-0.0293,-0.0293,-0.0263,-0.0263,-0.0262,-0.0203,-0.0202,-0.0202,-0.0164,-0.0164,-0.0164,-0.0163,0.0015,0.0021,0.0026,0,0,0,0,0,0,0,0,0,0,0,0,0,-0.0261,-0.0293,-0.0263,-0.0236,-0.0233,-0.0203,-0.0202,-0.0201,-0.0164,-0.0164,-0.0163,-0.0163,0.0014,0.002,0.0027,0.0065,0,0,0.0048,0.0051,0,0,0,0,0,0,0,0,-0.0263,-0.026,-0.0241,-0.0238,-0.0235,-0.0191,-0.0147,-0.0106,-0.0164,-0.019,-0.0163,-0.0163,-0.0042,-0.0031,-0.0021,0.0073,0.0081,0.0049,0.0053,0.0056,0.0058,0,0,0,0,0,0,0,-0.0265,-0.0262,-0.0239,-0.024,-0.0237,-0.0209,-0.0205,-0.0139,-0.0115,-0.0188,-0.0185,-0.0179,-0.0039,-0.0028,-0.0016,0.0084,0.0049,0.0055,0.0059,0.0062,0.022,0.022,0,0,0,0,0,0,-0.0277,-0.0265,-0.0241,-0.0237,-0.0249,-0.0209,-0.0204,-0.0205,-0.0119,-0.0106,-0.0179,-0.0177,-0.004,-0.0024,-0.0009,0.0033,0.0056,0.0063,0.0067,0.022,0.022,0.022,0,0,0,0,0,0,-0.0278,-0.0276,-0.0243,-0.0249,-0.0243,-0.021,-0.021,-0.0204,-0.0197,-0.0114,-0.0099,-0.0179,-0.0039,-0.0019,0.0041,0.0041,0.0066,0.0072,0.022,0.022,0.022,0.0123,0,0,0,0,0,0,-0.0279,-0.0277,-0.0283,-0.0251,-0.0244,-0.0235,-0.021,-0.0203,-0.0194,-0.0191,-0.0108,-0.0092,-0.0037,0.003,0.0048,0.0051,0.0078,0.022,0.022,0.022,0.0126,0.012,0.0114,0,0,0,0,0,-0.0281,-0.0304,-0.0284,-0.0281,-0.0253,-0.0236,-0.023,-0.0204,-0.0194,-0.0196,-0.014,-0.0094,0.0043,0.0036,0.0057,0.0061,0.022,0.022,0.022,0.0129,0.0121,0.0115,0,0,0,0,0,0,-0.0327,-0.0301,-0.0279,-0.0294,-0.0265,-0.023,-0.0234,-0.0212,-0.0172,-0.017,-0.0091,-0.007,-0.0019,0.0036,0.0026,0.0107,0.0139,0.0143,0.0062,0.0056,0.005,0.0037,0.0083,0,0,0,0,0,-0.0338,-0.0342,-0.0307,-0.0315,-0.0307,-0.0269,-0.026,-0.0243,-0.0203,-0.0188,-0.0125,-0.0059,-0.0002,0.0036,0.0095,0.0145,0.0191,0.0162,0.0156,0.015,0.0154,0.0216,0.0216,0.0221,0.0221,0.0221,0,0,-0.0357,-0.0342,-0.0345,-0.0324,-0.0302,-0.03,-0.0264,-0.0261,-0.0252,-0.017,-0.0137,-0.0077,0.0006,0.0053,0.0082,0.01,0.0169,0.015,0.0145,0.0153,0.0217,0.0216,0.0216,0.0221,0.0221,0.0221,0,0,-0.0409,-0.0386,-0.0411,-0.039,-0.0366,-0.0335,-0.0337,-0.03,-0.0278,-0.0237,-0.018,-0.0122,-0.0031,0.0026,0.0067,0.0069,0.0131,0.0086,0.0054,0.0113,0.0112,0.0113,0.0147,0.0152,0.0087,0.0087,0.0087,0,-0.0434,-0.0456,-0.0414,-0.0429,-0.0417,-0.0355,-0.0374,-0.0339,-0.0284,-0.0257,-0.0239,-0.0106,-0.0042,0.0026,0.002,0.0056,0.009,0.0069,0.0103,0.0105,0.0107,0.0143,0.0149,0.0083,0.0083,0.0084,0.0084,0,-0.05,-0.0512,-0.0525,-0.0513,-0.0493,-0.05,-0.0443,-0.0416,-0.0373,-0.0326,-0.0255,-0.0167,-0.0086,-0.0061,-0.0019,0.0032,0.0048,0.0081,0.0115,0.0101,0.0139,0.0147,0.0076,0.0078,0.0079,0.008,0,0,-0.0567,-0.0575,-0.0576,-0.0582,-0.054,-0.053,-0.0506,-0.0459,-0.0436,-0.0362,-0.0321,-0.0224,-0.0168,-0.0118,-0.0052,0.0,0.0034,0.0038,0.0044,0.006,0.0145,0.018,0.0193,0.0068,0.007,0.0071,0.0156,0,-0.063,-0.0686,-0.066,-0.0683,-0.07,-0.0628,-0.0605,-0.0547,-0.0478,-0.0417,-0.0313,-0.0246,-0.0191,-0.0154,-0.0094,0.0011,0.0055,0.0007,0.0168,0.0173,0.0197,0.0204,0.0179,0.0255,0.0164,0.0166,0.0167,0,-0.0698,-0.0724,-0.0777,-0.0765,-0.0764,-0.0761,-0.0697,-0.0668,-0.0558,-0.0506,-0.0412,-0.032,-0.0217,-0.0177,-0.0012,-0.0047,0.0035,0.011,0.0116,0.0194,0.0225,0.0263,0.0275,0.0181,0.018,0.0179,0.0178,0,-0.0761,-0.0795,-0.084,-0.0837,-0.0817,-0.0817,-0.079,-0.07,-0.0665,-0.0555,-0.051,-0.0371,-0.0296,-0.0168,-0.0003,-0.001,0.0173,0.0188,0.0295,0.0298,0.0333,0.0337,0.0292,0.0292,0.0292,0.0291,0.0291,0,-0.0829,-0.086,-0.0879,-0.0899,-0.0935,-0.0886,-0.0884,-0.0834,-0.0749,-0.0704,-0.0563,-0.0496,-0.029,-0.015,-0.0018,0.0171,0.0166,0.0295,0.0331,0.0297,0.0296,0.0285,0.0283,0.0295,0.0294,0.0293,0.0293,0,-0.0887,-0.0903,-0.0955,-0.0967,-0.0971,-0.0992,-0.0962,-0.0948,-0.0862,-0.0797,-0.0764,-0.058,-0.0395,-0.0188,0.0033,0.0156,0.0328,0.0389,0.0325,0.0353,0.0408,0.04,0.0513,0.0515,0.0517,0.0518,0.052,0,-0.0922,-0.0961,-0.1012,-0.1048,-0.1061,-0.108,-0.1086,-0.1017,-0.0991,-0.0847,-0.0822,-0.0624,-0.0472,-0.013,0.0121,0.0373,0.0373,0.0486,0.0481,0.0412,0.0436,0.0425,0.0414,0.0477,0.0477,0.0478,0.0479,0,-0.0981,-0.1004,-0.1048,-0.113,-0.1166,-0.1193,-0.1194,-0.1191,-0.1092,-0.1025,-0.0903,-0.0769,-0.0415,-0.0117,0.0229,0.0365,0.0449,0.0509,0.0476,0.0425,0.0386,0.0406,0.0396,0.0485,0.0484,0.0484,0.0483,0.0483,-0.1015,-0.107,-0.1133,-0.1205,-0.1253,-0.1293,-0.1315,-0.1284,-0.1246,-0.1114,-0.0979,-0.0747,-0.0429,0.0063,0.0309,0.0535,0.052,0.0582,0.0576,0.0571,0.0552,0.0519,0.0637,0.0638,0.0638,0.0638,0.0638,0,-0.105,-0.1117,-0.1197,-0.1284,-0.1344,-0.1349,-0.1371,-0.1354,-0.1316,-0.1157,-0.1005,-0.0644,-0.0274,0.0048,0.0418,0.0637,0.0612,0.0665,0.0598,0.059,0.0584,0.0564,0.0653,0.0654,0.0655,0.0655,0,0,-0.1072,-0.1163,-0.1214,-0.1335,-0.1393,-0.145,-0.1466,-0.1415,-0.1312,-0.1162,-0.0974,-0.0684,-0.0278,-0.0005,0.0281,0.0476,0.0463,0.0484,0.0448,0.0325,0.0316,0.0514,0.0472,0,0,0,0,0]}],[{"header":{"parameterUnit":"m.s-1","parameterCategory":2,"la1":30.2991,"la2":30.254,"lo1":-89.0895,"lo2":-89.0444,"dy":0.0017,"dx":0.0017,"nx":28,"ny":28,"refTime":"2023-03-29T21:00:00:Z","depth":"4","parameterNumber":2,"parameterNumberName":"U-component_of_CURRENTS"},"data":[0,0,0,0,0,0,0,0,0,0,0,0,0,0,0,0,0,0,0,0,0,0,0,0,0,0,0,0,0,0,0,0,0,0,0,0,0,0,0,0,0,0,0,0,0,0,0,0,0,0,0,0,0,0,0,0,0,0,-0.1693,-0.1692,0,-0.1616,-0.1614,-0.1613,-0.1596,-0.1597,-0.1598,-0.1599,-0.1724,-0.1726,-0.1728,0,0,0,0,0,0,0,0,0,0,0,0,0,-0.1613,-0.1615,-0.1693,-0.1692,-0.1692,-0.1616,-0.1614,-0.1612,-0.1595,-0.1597,-0.1599,-0.16,-0.1723,-0.1725,-0.1728,0,0,0,0,0,0,0,0,0,0,0,0,0,-0.1595,-0.1615,-0.1693,-0.1681,-0.168,-0.1617,-0.1614,-0.1612,-0.1595,-0.1597,-0.1599,-0.1601,-0.1722,-0.1725,-0.1728,-0.1707,0,0,-0.1738,-0.1739,0,0,0,0,0,0,0,0,-0.1596,-0.1597,-0.1683,-0.1682,-0.168,-0.1625,-0.1632,-0.1657,-0.1594,-0.1618,-0.16,-0.1602,-0.1714,-0.1717,-0.1683,-0.1713,-0.1719,-0.1738,-0.174,-0.1741,-0.1742,0,0,0,0,0,0,0,-0.1598,-0.1599,-0.1653,-0.1683,-0.1681,-0.1608,-0.1608,-0.1634,-0.1653,-0.1616,-0.1617,-0.1621,-0.1713,-0.168,-0.1687,-0.172,-0.1738,-0.1741,-0.1743,-0.1744,-0.1763,-0.1762,0,0,0,0,0,0,-0.1634,-0.1602,-0.1656,-0.1652,-0.1652,-0.1609,-0.1609,-0.1634,-0.1648,-0.1653,-0.162,-0.1621,-0.1674,-0.1683,-0.1692,-0.1812,-0.1741,-0.1744,-0.1746,-0.1764,-0.1762,-0.1761,0,0,0,0,0,0,-0.1633,-0.164,-0.1659,-0.163,-0.1629,-0.1611,-0.1636,-0.1631,-0.1637,-0.165,-0.1658,-0.1638,-0.1676,-0.1687,-0.1749,-0.1812,-0.1746,-0.1748,-0.1766,-0.1764,-0.1762,-0.1962,0,0,0,0,0,0,-0.1631,-0.1641,-0.1667,-0.1634,-0.1632,-0.1645,-0.1635,-0.1629,-0.1639,-0.164,-0.1668,-0.1678,-0.1678,-0.1744,-0.1752,-0.1815,-0.1751,-0.1767,-0.1765,-0.1762,-0.1957,-0.1967,-0.1976,0,0,0,0,0,-0.1629,-0.1659,-0.1669,-0.1676,-0.1672,-0.1647,-0.1638,-0.1623,-0.1639,-0.1636,-0.1667,-0.1679,-0.1731,-0.1748,-0.1756,-0.1822,-0.1769,-0.1766,-0.1763,-0.1953,-0.1965,-0.1975,0,0,0,0,0,0,-0.1626,-0.166,-0.167,-0.1708,-0.1693,-0.1648,-0.1654,-0.1644,-0.1656,-0.1683,-0.1693,-0.1705,-0.1793,-0.1742,-0.1759,-0.1799,-0.1739,-0.1738,-0.188,-0.1892,-0.1901,-0.1881,-0.1753,0,0,0,0,0,-0.1644,-0.1683,-0.1683,-0.1709,-0.1719,-0.1693,-0.1685,-0.1679,-0.1685,-0.169,-0.1704,-0.1716,-0.1771,-0.1785,-0.1808,-0.1834,-0.1787,-0.1858,-0.1868,-0.1877,-0.1854,-0.1823,-0.1831,-0.1751,-0.1751,-0.1751,0,0,-0.1645,-0.1672,-0.169,-0.1712,-0.1707,-0.1713,-0.1693,-0.1701,-0.1701,-0.1709,-0.1731,-0.1784,-0.179,-0.1843,-0.1868,-0.1819,-0.188,-0.1873,-0.1883,-0.1854,-0.1821,-0.183,-0.1838,-0.1749,-0.1749,-0.175,0,0,-0.1657,-0.1704,-0.1736,-0.1745,-0.1763,-0.1743,-0.1762,-0.1743,-0.1739,-0.1767,-0.1797,-0.187,-0.1888,-0.1917,-0.1937,-0.1988,-0.1959,-0.1987,-0.2009,-0.1983,-0.1991,-0.1997,-0.1999,-0.2004,-0.196,-0.1961,-0.1961,0,-0.1657,-0.1707,-0.1731,-0.1766,-0.1781,-0.1772,-0.1793,-0.1778,-0.1772,-0.1781,-0.1796,-0.1868,-0.192,-0.1991,-0.203,-0.2025,-0.1996,-0.2,-0.2004,-0.2008,-0.2011,-0.2011,-0.2014,-0.197,-0.1969,-0.1968,-0.1967,0,-0.1682,-0.1735,-0.1758,-0.1808,-0.182,-0.1837,-0.1841,-0.1842,-0.1856,-0.1844,-0.1917,-0.1967,-0.1996,-0.2043,-0.2082,-0.213,-0.2105,-0.2062,-0.2002,-0.2033,-0.2029,-0.2029,-0.1983,-0.198,-0.1977,-0.1975,0,0,-0.164,-0.1754,-0.1763,-0.1799,-0.1853,-0.1851,-0.1882,-0.1886,-0.1909,-0.1915,-0.1943,-0.2063,-0.2083,-0.2099,-0.2146,-0.214,-0.2218,-0.212,-0.2115,-0.2168,-0.2178,-0.2057,-0.2044,-0.2183,-0.2183,-0.2182,-0.2189,0,-0.1645,-0.1716,-0.1777,-0.1827,-0.1859,-0.1896,-0.1922,-0.1935,-0.1952,-0.1969,-0.2011,-0.2071,-0.2098,-0.2161,-0.2164,-0.222,-0.2213,-0.222,-0.2094,-0.209,-0.2017,-0.2037,-0.2181,-0.2188,-0.2187,-0.2187,-0.2187,0,-0.1636,-0.1689,-0.1752,-0.1849,-0.1871,-0.1901,-0.1948,-0.1969,-0.2005,-0.203,-0.2066,-0.2096,-0.2157,-0.2153,-0.2182,-0.2185,-0.219,-0.2198,-0.2197,-0.1999,-0.1965,-0.2125,-0.2185,-0.2185,-0.2185,-0.2185,-0.2185,0,-0.1552,-0.1665,-0.1713,-0.1747,-0.1851,-0.1889,-0.193,-0.1983,-0.201,-0.2058,-0.2095,-0.2127,-0.217,-0.2152,-0.2195,-0.2192,-0.2196,-0.2178,-0.2056,-0.2049,-0.2077,-0.2068,-0.2151,-0.2151,-0.2151,-0.2151,-0.215,0,-0.1511,-0.1554,-0.1684,-0.1706,-0.1768,-0.1857,-0.1915,-0.1959,-0.2034,-0.2059,-0.2116,-0.2131,-0.217,-0.2181,-0.2187,-0.2119,-0.2172,-0.2054,-0.2028,-0.2163,-0.2165,-0.208,-0.2072,-0.2151,-0.2151,-0.2151,-0.2151,0,-0.141,-0.1499,-0.1564,-0.169,-0.1733,-0.177,-0.1901,-0.1928,-0.202,-0.2055,-0.2075,-0.2146,-0.215,-0.2171,-0.2174,-0.2103,-0.2061,-0.2019,-0.2193,-0.2178,-0.1941,-0.1942,-0.1869,-0.1864,-0.186,-0.1857,-0.1854,0,-0.1365,-0.1389,-0.153,-0.1567,-0.1631,-0.1713,-0.1762,-0.1887,-0.1917,-0.2033,-0.2027,-0.2085,-0.2107,-0.2008,-0.2048,-0.2005,-0.1979,-0.1947,-0.1914,-0.1922,-0.1905,-0.1913,-0.1919,-0.1848,-0.1847,-0.1846,-0.1845,0,-0.1273,-0.1336,-0.1385,-0.1467,-0.1532,-0.1601,-0.1683,-0.1701,-0.1823,-0.193,-0.1921,-0.1915,-0.1921,-0.1911,-0.1897,-0.1864,-0.196,-0.1906,-0.1914,-0.1882,-0.1897,-0.1885,-0.1896,-0.1832,-0.1834,-0.1835,-0.1836,0,-0.1202,-0.1217,-0.1291,-0.1349,-0.1425,-0.1457,-0.1527,-0.1568,-0.1627,-0.1763,-0.1751,-0.1814,-0.1895,-0.1837,-0.182,-0.1782,-0.1748,-0.1682,-0.17,-0.1715,-0.1659,-0.1656,-0.1481,0,0,0,0,0,-0.1127,-0.1128,-0.117,-0.1227,-0.1294,-0.1342,-0.1455,-0.1527,-0.1654,-0.1599,-0.1675,-0.1668,-0.1645,-0.1684,-0.1609,-0.1745,-0.1754,-0.165,-0.1689,-0.1757,-0.1773,-0.172,0,0,0,0,0,0,-0.1074,-0.1104,-0.1123,-0.1105,-0.1118,-0.1183,-0.1248,-0.1341,-0.1332,-0.1463,-0.1462,-0.1554,-0.1561,-0.1653,-0.1568,-0.1578,-0.1566,-0.17,-0.1695,-0.1749,-0.1763,-0.1775,-0.1726,0,0,0,0,0]},{"header":{"parameterUnit":"m.s-1","parameterCategory":2,"la1":30.2991,"la2":30.254,"lo1":-89.0895,"lo2":-89.0444,"dy":0.0017,"dx":0.0017,"nx":28,"ny":28,"refTime":"2023-03-29T21:00:00:Z","depth":"4","parameterNumber":3,"parameterNumberName":"V-component_of_CURRENTS"},"data":[0,0,0,0,0,0,0,0,0,0,0,0,0,0,0,0,0,0,0,0,0,0,0,0,0,0,0,0,0,0,0,0,0,0,0,0,0,0,0,0,0,0,0,0,0,0,0,0,0,0,0,0,0,0,0,0,0,0,-0.0193,-0.0193,0,-0.0185,-0.0186,-0.0186,-0.0167,-0.0167,-0.0166,-0.0166,-0.0084,-0.0083,-0.0081,0,0,0,0,0,0,0,0,0,0,0,0,0,-0.0188,-0.0188,-0.0193,-0.0193,-0.0192,-0.0185,-0.0186,-0.0186,-0.0167,-0.0167,-0.0166,-0.0165,-0.0085,-0.0083,-0.0081,0,0,0,0,0,0,0,0,0,0,0,0,0,-0.0188,-0.0188,-0.0193,-0.0181,-0.018,-0.0185,-0.0186,-0.0186,-0.0167,-0.0167,-0.0166,-0.0165,-0.0085,-0.0083,-0.0081,-0.0081,0,0,-0.0073,-0.0072,0,0,0,0,0,0,0,0,-0.0188,-0.0188,-0.0183,-0.0182,-0.0181,-0.0175,-0.0154,-0.0146,-0.0168,-0.0174,-0.0166,-0.0165,-0.0107,-0.0103,-0.0107,-0.0078,-0.0074,-0.0073,-0.0071,-0.007,-0.0069,0,0,0,0,0,0,0,-0.0188,-0.0188,-0.0192,-0.0183,-0.0181,-0.0175,-0.0174,-0.0153,-0.0145,-0.0173,-0.0172,-0.0168,-0.0106,-0.0109,-0.0104,-0.0073,-0.0073,-0.0071,-0.0069,-0.0068,-0.0081,-0.0083,0,0,0,0,0,0,-0.0187,-0.0188,-0.0192,-0.0191,-0.018,-0.0176,-0.0175,-0.0179,-0.0147,-0.0141,-0.0169,-0.0167,-0.0114,-0.0107,-0.0101,-0.01,-0.007,-0.0068,-0.0066,-0.008,-0.0082,-0.0084,0,0,0,0,0,0,-0.0187,-0.0187,-0.0192,-0.0188,-0.0188,-0.0176,-0.0181,-0.0179,-0.0183,-0.0144,-0.0137,-0.0174,-0.0113,-0.0105,-0.0095,-0.0096,-0.0067,-0.0064,-0.0077,-0.008,-0.0083,-0.0096,0,0,0,0,0,0,-0.0187,-0.0188,-0.0196,-0.0188,-0.0188,-0.0203,-0.0182,-0.018,-0.0181,-0.0179,-0.0146,-0.0138,-0.0112,-0.0099,-0.0092,-0.0092,-0.0062,-0.0075,-0.0079,-0.0082,-0.0093,-0.0099,-0.0104,0,0,0,0,0,-0.0187,-0.0209,-0.0196,-0.0197,-0.0198,-0.0204,-0.0204,-0.0193,-0.0182,-0.0192,-0.0173,-0.0139,-0.0117,-0.0098,-0.009,-0.0089,-0.0073,-0.0078,-0.0082,-0.0091,-0.0098,-0.0104,0,0,0,0,0,0,-0.0216,-0.0209,-0.0195,-0.0214,-0.0208,-0.02,-0.0211,-0.0199,-0.0194,-0.0191,-0.0153,-0.0144,-0.0132,-0.0125,-0.0105,-0.0111,-0.0094,-0.0096,-0.0104,-0.011,-0.0115,-0.0104,-0.006,0,0,0,0,0,-0.0224,-0.0235,-0.0222,-0.0237,-0.0236,-0.0222,-0.0224,-0.0217,-0.0208,-0.0205,-0.0182,-0.0166,-0.0146,-0.0138,-0.0121,-0.0123,-0.0079,-0.0126,-0.0131,-0.0135,-0.0126,-0.0056,-0.0052,-0.0098,-0.0097,-0.0097,0,0,-0.0238,-0.0235,-0.0241,-0.0243,-0.0238,-0.0246,-0.0223,-0.0232,-0.0236,-0.0195,-0.02,-0.0174,-0.015,-0.0147,-0.0143,-0.0138,-0.0106,-0.014,-0.0143,-0.0132,-0.0059,-0.0054,-0.0049,-0.01,-0.01,-0.0099,0,0,-0.0279,-0.027,-0.0294,-0.029,-0.0285,-0.0273,-0.0276,-0.027,-0.0265,-0.0266,-0.0234,-0.0211,-0.02,-0.0173,-0.0159,-0.0188,-0.0128,-0.0199,-0.0216,-0.0148,-0.0141,-0.0136,-0.0089,-0.0079,-0.0209,-0.0209,-0.0209,0,-0.0296,-0.0322,-0.0302,-0.0321,-0.0319,-0.0285,-0.0306,-0.0297,-0.0289,-0.0279,-0.0274,-0.023,-0.0207,-0.0177,-0.0193,-0.0192,-0.0154,-0.0184,-0.0148,-0.0141,-0.0135,-0.0089,-0.0077,-0.0211,-0.021,-0.021,-0.021,0,-0.0349,-0.0367,-0.0382,-0.0385,-0.038,-0.0395,-0.0369,-0.0364,-0.0347,-0.0328,-0.0299,-0.0265,-0.0235,-0.0233,-0.0219,-0.0176,-0.0164,-0.0149,-0.0118,-0.013,-0.0082,-0.007,-0.0212,-0.0212,-0.0211,-0.0211,0,0,-0.039,-0.0417,-0.0421,-0.0432,-0.0416,-0.0419,-0.0412,-0.0394,-0.038,-0.0359,-0.0332,-0.0301,-0.0267,-0.025,-0.0222,-0.0174,-0.0102,-0.0152,-0.0148,-0.0082,0.0039,0.0024,0.0037,-0.0072,-0.0069,-0.0068,0.005,0,-0.0437,-0.0493,-0.0483,-0.0515,-0.0535,-0.0492,-0.0488,-0.0459,-0.0421,-0.0386,-0.0328,-0.0296,-0.0278,-0.0258,-0.0203,-0.0122,-0.0069,-0.0137,0.0019,0.0023,0.0034,0.0051,-0.0061,0.006,0.0063,0.0065,0.0066,0,-0.0485,-0.0516,-0.0569,-0.0578,-0.0581,-0.0591,-0.0552,-0.0543,-0.0471,-0.044,-0.0377,-0.0319,-0.0245,-0.0227,-0.008,-0.0123,-0.0045,0.0016,0.0023,0.0028,0.0033,0.0075,0.009,0.0088,0.0086,0.0085,0.0083,0,-0.0518,-0.0566,-0.0612,-0.0617,-0.0623,-0.0632,-0.0625,-0.0567,-0.0549,-0.0465,-0.043,-0.0325,-0.0272,-0.0153,-0.0033,-0.0046,0.0137,0.0139,0.0201,0.02,0.0187,0.018,0.0258,0.0258,0.0258,0.0257,0.0257,0,-0.0558,-0.0594,-0.0641,-0.0663,-0.0705,-0.0684,-0.0693,-0.0661,-0.0601,-0.0571,-0.0466,-0.0411,-0.0248,-0.0126,-0.0017,0.0128,0.0156,0.0213,0.0239,0.0171,0.0161,0.0196,0.0187,0.0262,0.0261,0.026,0.0259,0,-0.0579,-0.0614,-0.0671,-0.0711,-0.0727,-0.0754,-0.0758,-0.0749,-0.0689,-0.0636,-0.0609,-0.0461,-0.0305,-0.0142,0.0059,0.0138,0.0284,0.0329,0.0238,0.0255,0.0296,0.0285,0.0416,0.0417,0.0418,0.0418,0.0418,0,-0.0593,-0.0631,-0.0711,-0.0752,-0.0781,-0.0818,-0.0836,-0.0801,-0.078,-0.067,-0.0642,-0.048,-0.037,-0.0097,0.0067,0.0293,0.0314,0.0389,0.035,0.0305,0.0318,0.0305,0.0293,0.0419,0.0419,0.042,0.042,0,-0.0613,-0.0652,-0.07,-0.0793,-0.0844,-0.0884,-0.0907,-0.0897,-0.0833,-0.0783,-0.0652,-0.049,-0.0311,-0.0102,0.0078,0.0233,0.0343,0.0395,0.0395,0.0359,0.031,0.0319,0.0307,0.0422,0.0422,0.0421,0.0421,0,-0.0624,-0.0669,-0.0744,-0.0818,-0.0889,-0.0928,-0.0937,-0.0906,-0.0875,-0.0748,-0.071,-0.0502,-0.0376,-0.0133,0.003,0.0189,0.0219,0.0257,0.0264,0.0263,0.0178,0.009,0.0171,0,0,0,0,0,-0.0622,-0.0679,-0.0759,-0.0842,-0.0912,-0.0948,-0.0968,-0.0958,-0.0903,-0.0819,-0.0759,-0.0588,-0.0316,-0.0194,-0.0039,0.0026,0.0234,0.0211,0.0277,0.0433,0.0431,0.0354,0,0,0,0,0,0,-0.0627,-0.0704,-0.0755,-0.0843,-0.0899,-0.0963,-0.0979,-0.0945,-0.0888,-0.0814,-0.0672,-0.0566,-0.0309,-0.0409,-0.0041,0.001,0.0069,0.0347,0.035,0.0434,0.0432,0.043,0.0351,0,0,0,0,0]}]]